Location: Blanot
(47.1713°N, 4.2340°E)
Time: 08:44:34
(UTC+00:00)

BREEZE-M DEB (TANK) - Pass Details

Date: 14 July 2020
Orbit: 275 x 20501 km, 49.2° (Epoch: 14 August)

Event Time Altitude Azimuth Distance (km) Brightness Sun altitude
Exits shadow 01:57:41 10° 278° (W) 1,451 4.7 -15.3°
Maximum altitude 02:00:18 49° 201° (SSW) 841 3.3 -15.1°
Drops below altitude 10° 02:08:22 10° 128° (SE) 4,365 7.3 -14.4°
Sets 02:15:35 0° 126° (SE) 7,507 8.6 -13.7°
